Time,TemperatureF,DewpointF,PressureIn,WindDirection,WindDirectionDegrees,WindSpeedMPH,WindSpeedGustMPH,Humidity,HourlyPrecipIn,Conditions,Clouds,dailyrainin,SoftwareType,DateUTC
2013-01-23 00:05:00,18.5,16.3,30.36,South,171,0.0,0.0,91,0.00,,,0.00,Wunderground v.1.15,2013-01-23 07:05:00,
2013-01-23 00:10:00,18.5,16.3,30.36,South,171,0.0,0.0,91,0.00,,,0.00,Wunderground v.1.15,2013-01-23 07:10:00,
2013-01-23 00:16:00,18.6,16.4,30.36,South,171,0.0,0.0,91,0.00,,,0.00,Wunderground v.1.15,2013-01-23 07:16:00,
2013-01-23 00:21:00,18.5,16.3,30.36,South,171,0.0,0.0,91,0.00,,,0.00,Wunderground v.1.15,2013-01-23 07:21:00,
2013-01-23 00:26:00,18.5,16.3,30.36,South,171,0.0,0.0,91,0.00,,,0.00,Wunderground v.1.15,2013-01-23 07:26:00,
2013-01-23 00:32:00,18.4,16.2,30.36,South,171,0.0,0.0,91,0.00,,,0.00,Wunderground v.1.15,2013-01-23 07:32:00,
2013-01-23 00:37:00,18.5,16.3,30.36,South,171,0.0,0.0,91,0.00,,,0.00,Wunderground v.1.15,2013-01-23 07:37:00,
2013-01-23 00:43:00,18.5,16.6,30.36,South,171,0.0,0.0,92,0.00,,,0.00,Wunderground v.1.15,2013-01-23 07:43:00,
2013-01-23 00:49:00,18.4,16.2,30.36,South,171,0.0,0.0,91,0.00,,,0.00,Wunderground v.1.15,2013-01-23 07:49:00,
2013-01-23 00:54:00,18.3,16.1,30.36,South,171,0.0,0.0,91,0.00,,,0.00,Wunderground v.1.15,2013-01-23 07:54:00,
2013-01-23 01:00:00,18.2,16.0,30.36,South,171,0.0,0.0,91,0.00,,,0.00,Wunderground v.1.15,2013-01-23 08:00:00,
2013-01-23 01:05:00,18.2,16.0,30.36,South,171,0.0,0.0,91,0.00,,,0.00,Wunderground v.1.15,2013-01-23 08:05:00,
2013-01-23 01:11:00,18.2,16.0,30.36,South,171,0.0,0.0,91,0.00,,,0.00,Wunderground v.1.15,2013-01-23 08:11:00,
2013-01-23 01:16:00,18.2,16.0,30.36,South,171,0.0,0.0,91,0.00,,,0.00,Wunderground v.1.15,2013-01-23 08:16:00,
2013-01-23 01:22:00,18.2,16.0,30.36,South,171,0.0,0.0,91,0.00,,,0.00,Wunderground v.1.15,2013-01-23 08:22:00,
2013-01-23 01:28:00,18.2,16.0,30.36,South,171,0.0,0.0,91,0.00,,,0.00,Wunderground v.1.15,2013-01-23 08:28:00,
2013-01-23 01:34:00,18.1,15.9,30.36,South,171,0.0,0.0,91,0.00,,,0.00,Wunderground v.1.15,2013-01-23 08:34:00,
2013-01-23 01:40:00,18.2,16.0,30.36,South,171,0.0,0.0,91,0.00,,,0.00,Wunderground v.1.15,2013-01-23 08:40:00,
2013-01-23 01:45:00,18.4,16.5,30.36,South,171,0.0,0.0,92,0.00,,,0.00,Wunderground v.1.15,2013-01-23 08:45:00,
2013-01-23 01:51:00,18.5,16.6,30.36,South,171,0.0,0.0,92,0.00,,,0.00,Wunderground v.1.15,2013-01-23 08:51:00,
2013-01-23 01:57:00,18.4,16.5,30.36,South,171,0.0,0.0,92,0.00,,,0.00,Wunderground v.1.15,2013-01-23 08:57:00,
2013-01-23 02:02:00,18.3,16.1,30.36,South,171,0.0,0.0,91,0.00,,,0.00,Wunderground v.1.15,2013-01-23 09:02:00,
2013-01-23 02:07:00,18.2,16.0,30.35,South,171,0.0,0.0,91,0.00,,,0.00,Wunderground v.1.15,2013-01-23 09:07:00,
2013-01-23 02:12:00,18.2,16.0,30.35,South,171,0.0,0.0,91,0.00,,,0.00,Wunderground v.1.15,2013-01-23 09:12:00,
2013-01-23 02:18:00,18.2,16.0,30.35,South,171,0.0,0.0,91,0.00,,,0.00,Wunderground v.1.15,2013-01-23 09:18:00,
2013-01-23 02:23:00,18.4,16.5,30.35,South,171,0.0,0.0,92,0.00,,,0.00,Wunderground v.1.15,2013-01-23 09:23:00,
2013-01-23 02:28:00,18.3,16.4,30.35,South,171,0.0,1.0,92,0.00,,,0.00,Wunderground v.1.15,2013-01-23 09:28:00,
2013-01-23 02:33:00,18.2,16.0,30.35,South,171,0.0,0.0,91,0.00,,,0.00,Wunderground v.1.15,2013-01-23 09:33:00,
2013-01-23 02:39:00,18.0,15.8,30.35,South,171,0.0,0.0,91,0.00,,,0.00,Wunderground v.1.15,2013-01-23 09:39:00,
2013-01-23 02:44:00,18.0,15.8,30.35,South,171,0.0,0.0,91,0.00,,,0.00,Wunderground v.1.15,2013-01-23 09:44:00,
2013-01-23 02:50:00,18.1,16.2,30.36,South,171,0.0,0.0,92,0.00,,,0.00,Wunderground v.1.15,2013-01-23 09:50:00,
2013-01-23 02:55:00,18.1,16.2,30.36,South,171,0.0,0.0,92,0.00,,,0.00,Wunderground v.1.15,2013-01-23 09:55:00,
2013-01-23 03:00:00,18.2,16.3,30.36,South,171,0.0,0.0,92,0.00,,,0.00,Wunderground v.1.15,2013-01-23 10:00:00,
2013-01-23 03:05:00,18.3,16.4,30.35,South,171,0.0,0.0,92,0.00,,,0.00,Wunderground v.1.15,2013-01-23 10:05:00,
2013-01-23 03:11:00,18.0,15.8,30.35,South,171,0.0,0.0,91,0.00,,,0.00,Wunderground v.1.15,2013-01-23 10:11:00,
2013-01-23 03:16:00,17.8,15.4,30.35,South,171,0.0,0.0,90,0.00,,,0.00,Wunderground v.1.15,2013-01-23 10:16:00,
2013-01-23 03:22:00,17.6,15.4,30.35,South,171,0.0,0.0,91,0.00,,,0.00,Wunderground v.1.15,2013-01-23 10:22:00,
2013-01-23 03:27:00,17.6,15.4,30.35,South,171,0.0,0.0,91,0.00,,,0.00,Wunderground v.1.15,2013-01-23 10:27:00,
2013-01-23 03:33:00,17.5,15.3,30.35,South,171,0.0,0.0,91,0.00,,,0.00,Wunderground v.1.15,2013-01-23 10:33:00,
2013-01-23 03:38:00,17.5,15.3,30.35,South,171,0.0,0.0,91,0.00,,,0.00,Wunderground v.1.15,2013-01-23 10:38:00,
2013-01-23 03:44:00,17.6,15.4,30.35,South,171,0.0,0.0,91,0.00,,,0.00,Wunderground v.1.15,2013-01-23 10:44:00,
2013-01-23 03:49:00,17.5,15.3,30.35,South,171,0.0,0.0,91,0.00,,,0.00,Wunderground v.1.15,2013-01-23 10:49:00,
2013-01-23 03:54:00,17.4,15.2,30.35,South,171,0.0,0.0,91,0.00,,,0.00,Wunderground v.1.15,2013-01-23 10:54:00,
2013-01-23 04:00:00,17.3,15.1,30.35,South,171,0.0,0.0,91,0.00,,,0.00,Wunderground v.1.15,2013-01-23 11:00:00,
2013-01-23 04:05:00,17.3,15.1,30.35,South,171,0.0,0.0,91,0.00,,,0.00,Wunderground v.1.15,2013-01-23 11:05:00,
2013-01-23 04:11:00,17.3,15.1,30.35,South,171,0.0,0.0,91,0.00,,,0.00,Wunderground v.1.15,2013-01-23 11:11:00,
2013-01-23 04:17:00,17.4,15.5,30.35,South,171,0.0,0.0,92,0.00,,,0.00,Wunderground v.1.15,2013-01-23 11:17:00,
2013-01-23 04:23:00,17.4,15.5,30.35,South,171,0.0,1.0,92,0.00,,,0.00,Wunderground v.1.15,2013-01-23 11:23:00,
2013-01-23 04:28:00,17.5,15.6,30.35,South,171,0.0,1.0,92,0.00,,,0.00,Wunderground v.1.15,2013-01-23 11:28:00,
2013-01-23 04:34:00,17.5,15.6,30.35,South,171,0.0,0.0,92,0.00,,,0.00,Wunderground v.1.15,2013-01-23 11:34:00,
2013-01-23 04:39:00,17.6,15.7,30.35,South,171,0.0,0.0,92,0.00,,,0.00,Wunderground v.1.15,2013-01-23 11:39:00,
2013-01-23 04:45:00,17.7,15.8,30.35,South,171,0.0,0.0,92,0.00,,,0.00,Wunderground v.1.15,2013-01-23 11:45:00,
2013-01-23 04:50:00,17.7,15.8,30.35,South,171,0.0,0.0,92,0.00,,,0.00,Wunderground v.1.15,2013-01-23 11:50:00,
2013-01-23 04:56:00,17.7,15.8,30.35,South,171,0.0,0.0,92,0.00,,,0.00,Wunderground v.1.15,2013-01-23 11:56:00,
2013-01-23 05:01:00,17.7,15.8,30.35,South,171,0.0,0.0,92,0.00,,,0.00,Wunderground v.1.15,2013-01-23 12:01:00,
2013-01-23 05:07:00,17.6,15.7,30.35,South,171,0.0,1.0,92,0.00,,,0.00,Wunderground v.1.15,2013-01-23 12:07:00,
2013-01-23 05:12:00,17.6,15.4,30.35,South,171,0.0,0.0,91,0.00,,,0.00,Wunderground v.1.15,2013-01-23 12:12:00,
2013-01-23 05:18:00,17.6,15.4,30.34,South,171,0.0,0.0,91,0.00,,,0.00,Wunderground v.1.15,2013-01-23 12:18:00,
2013-01-23 05:24:00,17.5,15.6,30.34,South,171,0.0,0.0,92,0.00,,,0.00,Wunderground v.1.15,2013-01-23 12:24:00,
2013-01-23 05:29:00,17.6,15.7,30.34,South,171,0.0,0.0,92,0.00,,,0.00,Wunderground v.1.15,2013-01-23 12:29:00,
2013-01-23 05:34:00,17.6,15.7,30.34,South,171,0.0,0.0,92,0.00,,,0.00,Wunderground v.1.15,2013-01-23 12:34:00,
2013-01-23 05:40:00,17.7,15.8,30.34,South,171,0.0,0.0,92,0.00,,,0.00,Wunderground v.1.15,2013-01-23 12:40:00,
2013-01-23 05:45:00,17.7,15.8,30.34,South,171,0.0,0.0,92,0.00,,,0.00,Wunderground v.1.15,2013-01-23 12:45:00,
2013-01-23 05:51:00,17.7,15.8,30.33,South,171,0.0,0.0,92,0.00,,,0.00,Wunderground v.1.15,2013-01-23 12:51:00,
2013-01-23 05:56:00,17.8,15.9,30.33,South,171,0.0,0.0,92,0.00,,,0.00,Wunderground v.1.15,2013-01-23 12:56:00,
2013-01-23 06:01:00,17.9,16.0,30.34,South,171,0.0,0.0,92,0.00,,,0.00,Wunderground v.1.15,2013-01-23 13:01:00,
2013-01-23 06:07:00,18.0,16.3,30.34,South,171,0.0,0.0,93,0.00,,,0.00,Wunderground v.1.15,2013-01-23 13:07:00,
2013-01-23 06:13:00,18.2,16.5,30.34,South,171,0.0,0.0,93,0.00,,,0.00,Wunderground v.1.15,2013-01-23 13:13:00,
2013-01-23 06:18:00,18.3,16.6,30.34,South,171,0.0,0.0,93,0.00,,,0.00,Wunderground v.1.15,2013-01-23 13:18:00,
2013-01-23 06:23:00,18.4,16.7,30.33,South,171,0.0,0.0,93,0.00,,,0.00,Wunderground v.1.15,2013-01-23 13:23:00,
2013-01-23 06:28:00,18.4,16.7,30.33,South,171,0.0,0.0,93,0.00,,,0.00,Wunderground v.1.15,2013-01-23 13:28:00,
2013-01-23 06:34:00,18.3,16.4,30.33,South,171,0.0,0.0,92,0.00,,,0.00,Wunderground v.1.15,2013-01-23 13:34:00,
2013-01-23 06:39:00,18.1,16.2,30.33,South,171,0.0,0.0,92,0.00,,,0.00,Wunderground v.1.15,2013-01-23 13:39:00,
2013-01-23 06:45:00,17.7,15.5,30.33,South,171,0.0,0.0,91,0.00,,,0.00,Wunderground v.1.15,2013-01-23 13:45:00,
2013-01-23 06:50:00,17.4,15.2,30.32,South,171,0.0,0.0,91,0.00,,,0.00,Wunderground v.1.15,2013-01-23 13:50:00,
2013-01-23 06:55:00,17.2,14.8,30.33,South,171,0.0,0.0,90,0.00,,,0.00,Wunderground v.1.15,2013-01-23 13:55:00,
2013-01-23 07:00:00,17.1,14.9,30.33,South,171,0.0,0.0,91,0.00,,,0.00,Wunderground v.1.15,2013-01-23 14:00:00,
2013-01-23 07:06:00,17.0,14.8,30.32,South,171,0.0,0.0,91,0.00,,,0.00,Wunderground v.1.15,2013-01-23 14:06:00,
2013-01-23 07:11:00,17.0,14.8,30.32,South,171,0.0,0.0,91,0.00,,,0.00,Wunderground v.1.15,2013-01-23 14:11:00,
2013-01-23 07:17:00,17.0,15.1,30.31,South,171,0.0,0.0,92,0.00,,,0.00,Wunderground v.1.15,2013-01-23 14:17:00,
2013-01-23 07:22:00,17.0,15.1,30.32,South,171,0.0,0.0,92,0.00,,,0.00,Wunderground v.1.15,2013-01-23 14:22:00,
2013-01-23 07:27:00,17.1,15.2,30.32,South,171,0.0,0.0,92,0.00,,,0.00,Wunderground v.1.15,2013-01-23 14:27:00,
2013-01-23 07:33:00,17.1,15.2,30.32,South,171,0.0,0.0,92,0.00,,,0.00,Wunderground v.1.15,2013-01-23 14:33:00,
2013-01-23 07:38:00,17.2,15.3,30.32,South,171,0.0,0.0,92,0.00,,,0.00,Wunderground v.1.15,2013-01-23 14:38:00,
2013-01-23 07:43:00,17.3,15.4,30.31,South,171,0.0,0.0,92,0.00,,,0.00,Wunderground v.1.15,2013-01-23 14:43:00,
2013-01-23 07:48:00,17.3,15.4,30.31,South,171,0.0,0.0,92,0.00,,,0.00,Wunderground v.1.15,2013-01-23 14:48:00,
2013-01-23 07:54:00,17.3,15.4,30.31,South,171,0.0,0.0,92,0.00,,,0.00,Wunderground v.1.15,2013-01-23 14:54:00,
2013-01-23 07:59:00,17.2,15.3,30.31,South,171,0.0,0.0,92,0.00,,,0.00,Wunderground v.1.15,2013-01-23 14:59:00,
2013-01-23 08:05:00,17.1,15.2,30.31,South,171,0.0,0.0,92,0.00,,,0.00,Wunderground v.1.15,2013-01-23 15:05:00,
2013-01-23 08:10:00,17.1,15.2,30.31,South,171,0.0,0.0,92,0.00,,,0.00,Wunderground v.1.15,2013-01-23 15:10:00,
2013-01-23 08:15:00,17.1,15.2,30.30,South,171,0.0,0.0,92,0.00,,,0.00,Wunderground v.1.15,2013-01-23 15:15:00,
2013-01-23 08:21:00,17.1,15.2,30.30,South,171,0.0,0.0,92,0.00,,,0.00,Wunderground v.1.15,2013-01-23 15:21:00,
2013-01-23 08:26:00,17.0,15.1,30.29,South,171,0.0,0.0,92,0.00,,,0.00,Wunderground v.1.15,2013-01-23 15:26:00,
2013-01-23 08:31:00,16.9,15.0,30.29,South,171,0.0,0.0,92,0.00,,,0.00,Wunderground v.1.15,2013-01-23 15:31:00,
2013-01-23 08:36:00,16.9,15.0,30.30,South,171,0.0,0.0,92,0.00,,,0.00,Wunderground v.1.15,2013-01-23 15:36:00,
2013-01-23 08:42:00,16.8,14.9,30.30,South,171,0.0,0.0,92,0.00,,,0.00,Wunderground v.1.15,2013-01-23 15:42:00,
2013-01-23 08:47:00,16.8,14.9,30.30,South,171,0.0,0.0,92,0.00,,,0.00,Wunderground v.1.15,2013-01-23 15:47:00,
2013-01-23 08:53:00,16.9,15.0,30.30,South,171,0.0,0.0,92,0.00,,,0.00,Wunderground v.1.15,2013-01-23 15:53:00,
2013-01-23 08:58:00,17.0,15.3,30.30,South,171,0.0,0.0,93,0.00,,,0.00,Wunderground v.1.15,2013-01-23 15:58:00,
2013-01-23 09:03:00,17.0,15.1,30.30,South,171,0.0,0.0,92,0.00,,,0.00,Wunderground v.1.15,2013-01-23 16:03:00,
2013-01-23 09:08:00,17.0,15.1,30.29,South,171,0.0,0.0,92,0.00,,,0.00,Wunderground v.1.15,2013-01-23 16:08:00,
2013-01-23 09:14:00,17.1,15.2,30.30,South,171,0.0,0.0,92,0.00,,,0.00,Wunderground v.1.15,2013-01-23 16:14:00,
2013-01-23 09:19:00,17.2,15.5,30.30,South,171,0.0,0.0,93,0.00,,,0.00,Wunderground v.1.15,2013-01-23 16:19:00,
2013-01-23 09:25:00,17.5,15.8,30.30,South,171,0.0,0.0,93,0.00,,,0.00,Wunderground v.1.15,2013-01-23 16:25:00,
2013-01-23 09:30:00,17.6,15.9,30.30,South,171,0.0,0.0,93,0.00,,,0.00,Wunderground v.1.15,2013-01-23 16:30:00,
2013-01-23 09:35:00,17.7,16.0,30.30,South,171,0.0,0.0,93,0.00,,,0.00,Wunderground v.1.15,2013-01-23 16:35:00,
2013-01-23 09:41:00,17.8,16.1,30.29,South,171,0.0,0.0,93,0.00,,,0.00,Wunderground v.1.15,2013-01-23 16:41:00,
2013-01-23 09:46:00,17.9,16.2,30.29,South,171,0.0,0.0,93,0.00,,,0.00,Wunderground v.1.15,2013-01-23 16:46:00,
2013-01-23 09:51:00,18.0,16.3,30.29,South,171,0.0,0.0,93,0.00,,,0.00,Wunderground v.1.15,2013-01-23 16:51:00,
2013-01-23 09:56:00,18.2,16.5,30.30,South,171,0.0,0.0,93,0.00,,,0.00,Wunderground v.1.15,2013-01-23 16:56:00,
2013-01-23 10:02:00,18.4,16.7,30.30,South,171,0.0,0.0,93,0.00,,,0.00,Wunderground v.1.15,2013-01-23 17:02:00,
2013-01-23 10:07:00,18.7,17.0,30.30,South,171,0.0,0.0,93,0.00,,,0.00,Wunderground v.1.15,2013-01-23 17:07:00,
2013-01-23 10:13:00,19.0,17.6,30.29,South,171,0.0,0.0,94,0.00,,,0.00,Wunderground v.1.15,2013-01-23 17:13:00,
2013-01-23 10:18:00,19.3,17.6,30.29,South,171,0.0,0.0,93,0.00,,,0.00,Wunderground v.1.15,2013-01-23 17:18:00,
2013-01-23 10:23:00,19.2,17.3,30.29,South,171,0.0,0.0,92,0.00,,,0.00,Wunderground v.1.15,2013-01-23 17:23:00,
2013-01-23 10:28:00,19.6,17.4,30.29,South,171,0.0,0.0,91,0.00,,,0.00,Wunderground v.1.15,2013-01-23 17:28:00,
2013-01-23 10:34:00,20.0,17.8,30.28,South,171,0.0,0.0,91,0.00,,,0.00,Wunderground v.1.15,2013-01-23 17:34:00,
2013-01-23 10:39:00,20.2,18.0,30.29,South,171,0.0,0.0,91,0.00,,,0.00,Wunderground v.1.15,2013-01-23 17:39:00,
2013-01-23 10:45:00,20.7,18.2,30.28,South,171,0.0,0.0,90,0.00,,,0.00,Wunderground v.1.15,2013-01-23 17:45:00,
2013-01-23 10:50:00,20.8,18.3,30.28,South,171,0.0,0.0,90,0.00,,,0.00,Wunderground v.1.15,2013-01-23 17:50:00,
2013-01-23 10:55:00,20.6,17.9,30.28,South,171,0.0,0.0,89,0.00,,,0.00,Wunderground v.1.15,2013-01-23 17:55:00,
2013-01-23 11:01:00,20.6,18.1,30.27,South,171,0.0,0.0,90,0.00,,,0.00,Wunderground v.1.15,2013-01-23 18:01:00,
2013-01-23 11:06:00,21.2,18.7,30.27,South,171,0.0,0.0,90,0.00,,,0.00,Wunderground v.1.15,2013-01-23 18:06:00,
2013-01-23 11:11:00,21.5,18.8,30.27,South,171,0.0,0.0,89,0.00,,,0.00,Wunderground v.1.15,2013-01-23 18:11:00,
2013-01-23 11:17:00,22.1,19.4,30.27,South,173,1.0,4.0,89,0.00,,,0.00,Wunderground v.1.15,2013-01-23 18:17:00,
2013-01-23 11:22:00,22.3,19.3,30.27,South,173,1.0,1.0,88,0.00,,,0.00,Wunderground v.1.15,2013-01-23 18:22:00,
2013-01-23 11:28:00,23.1,20.1,30.26,South,183,1.0,2.0,88,0.00,,,0.00,Wunderground v.1.15,2013-01-23 18:28:00,
2013-01-23 11:33:00,23.6,20.3,30.26,South,178,1.0,1.0,87,0.00,,,0.00,Wunderground v.1.15,2013-01-23 18:33:00,
2013-01-23 11:39:00,24.4,20.8,30.26,South,178,0.0,1.0,86,0.00,,,0.00,Wunderground v.1.15,2013-01-23 18:39:00,
2013-01-23 11:44:00,24.1,20.8,30.26,South,178,0.0,0.0,87,0.00,,,0.00,Wunderground v.1.15,2013-01-23 18:44:00,
2013-01-23 11:49:00,24.2,21.2,30.26,South,178,0.0,0.0,88,0.00,,,0.00,Wunderground v.1.15,2013-01-23 18:49:00,
2013-01-23 11:55:00,24.4,20.5,30.26,SE,127,0.0,1.0,85,0.00,,,0.00,Wunderground v.1.15,2013-01-23 18:55:00,
2013-01-23 12:00:00,24.7,20.8,30.25,South,174,1.0,1.0,85,0.00,,,0.00,Wunderground v.1.15,2013-01-23 19:00:00,
2013-01-23 12:05:00,24.7,21.1,30.25,South,174,1.0,1.0,86,0.00,,,0.00,Wunderground v.1.15,2013-01-23 19:05:00,
2013-01-23 12:11:00,24.5,20.4,30.25,South,174,0.0,0.0,84,0.00,,,0.00,Wunderground v.1.15,2013-01-23 19:11:00,
2013-01-23 12:16:00,24.4,20.3,30.25,ESE,105,0.0,1.0,84,0.00,,,0.00,Wunderground v.1.15,2013-01-23 19:16:00,
2013-01-23 12:22:00,24.5,20.6,30.24,ESE,105,0.0,2.0,85,0.00,,,0.00,Wunderground v.1.15,2013-01-23 19:22:00,
2013-01-23 12:27:00,24.6,20.7,30.24,ESE,105,0.0,2.0,85,0.00,,,0.00,Wunderground v.1.15,2013-01-23 19:27:00,
2013-01-23 12:33:00,24.5,20.9,30.24,ESE,105,0.0,0.0,86,0.00,,,0.00,Wunderground v.1.15,2013-01-23 19:33:00,
2013-01-23 12:38:00,24.5,20.6,30.24,ESE,105,0.0,0.0,85,0.00,,,0.00,Wunderground v.1.15,2013-01-23 19:38:00,
2013-01-23 12:44:00,24.4,20.8,30.24,South,173,0.0,2.0,86,0.00,,,0.00,Wunderground v.1.15,2013-01-23 19:44:00,
2013-01-23 12:49:00,24.5,22.5,30.23,SSE,148,1.0,2.0,92,0.00,,,0.00,Wunderground v.1.15,2013-01-23 19:49:00,
2013-01-23 12:54:00,24.5,20.6,30.23,SSE,148,0.0,1.0,85,0.00,,,0.00,Wunderground v.1.15,2013-01-23 19:54:00,
2013-01-23 13:00:00,24.1,20.2,30.22,SSE,148,0.0,0.0,85,0.00,,,0.00,Wunderground v.1.15,2013-01-23 20:00:00,
2013-01-23 13:05:00,24.2,20.3,30.22,South,170,0.0,1.0,85,0.00,,,0.00,Wunderground v.1.15,2013-01-23 20:05:00,
2013-01-23 13:10:00,24.3,20.4,30.22,South,170,0.0,0.0,85,0.00,,,0.00,Wunderground v.1.15,2013-01-23 20:10:00,
2013-01-23 13:16:00,24.6,21.0,30.21,South,170,0.0,0.0,86,0.00,,,0.00,Wunderground v.1.15,2013-01-23 20:16:00,
2013-01-23 13:21:00,24.6,21.3,30.20,South,170,0.0,0.0,87,0.00,,,0.00,Wunderground v.1.15,2013-01-23 20:21:00,
2013-01-23 13:26:00,24.7,21.4,30.20,South,170,0.0,0.0,87,0.00,,,0.00,Wunderground v.1.15,2013-01-23 20:26:00,
2013-01-23 13:32:00,24.8,20.9,30.20,South,170,0.0,1.0,85,0.00,,,0.00,Wunderground v.1.15,2013-01-23 20:32:00,
2013-01-23 13:37:00,24.8,21.2,30.20,South,170,0.0,1.0,86,0.00,,,0.00,Wunderground v.1.15,2013-01-23 20:37:00,
2013-01-23 13:42:00,24.6,20.5,30.20,SE,124,0.0,1.0,84,0.00,,,0.00,Wunderground v.1.15,2013-01-23 20:42:00,
2013-01-23 13:48:00,24.7,20.6,30.20,East,90,0.0,1.0,84,0.00,,,0.00,Wunderground v.1.15,2013-01-23 20:48:00,
2013-01-23 13:53:00,24.9,21.0,30.20,South,172,1.0,2.0,85,0.00,,,0.00,Wunderground v.1.15,2013-01-23 20:53:00,
2013-01-23 13:58:00,24.9,20.5,30.20,South,176,1.0,2.0,83,0.00,,,0.00,Wunderground v.1.15,2013-01-23 20:58:00,
2013-01-23 14:04:00,24.9,20.5,30.20,South,176,1.0,1.0,83,0.00,,,0.00,Wunderground v.1.15,2013-01-23 21:04:00,
2013-01-23 14:09:00,25.5,20.8,30.18,South,176,1.0,1.0,82,0.00,,,0.00,Wunderground v.1.15,2013-01-23 21:09:00,
2013-01-23 14:15:00,26.0,21.3,30.18,South,176,0.0,0.0,82,0.00,,,0.00,Wunderground v.1.15,2013-01-23 21:15:00,
2013-01-23 14:20:00,26.0,21.5,30.18,South,176,0.0,0.0,83,0.00,,,0.00,Wunderground v.1.15,2013-01-23 21:20:00,
2013-01-23 14:25:00,25.9,21.7,30.18,South,176,0.0,0.0,84,0.00,,,0.00,Wunderground v.1.15,2013-01-23 21:25:00,
2013-01-23 14:31:00,25.9,21.7,30.19,South,176,0.0,0.0,84,0.00,,,0.00,Wunderground v.1.15,2013-01-23 21:31:00,
2013-01-23 14:36:00,25.6,20.9,30.18,South,176,0.0,0.0,82,0.00,,,0.00,Wunderground v.1.15,2013-01-23 21:36:00,
2013-01-23 14:42:00,25.4,21.0,30.18,South,176,0.0,0.0,83,0.00,,,0.00,Wunderground v.1.15,2013-01-23 21:42:00,
2013-01-23 14:47:00,25.6,21.2,30.18,South,176,0.0,0.0,83,0.00,,,0.00,Wunderground v.1.15,2013-01-23 21:47:00,
2013-01-23 14:52:00,25.6,21.4,30.18,South,176,0.0,0.0,84,0.00,,,0.00,Wunderground v.1.15,2013-01-23 21:52:00,
2013-01-23 14:58:00,25.6,22.0,30.18,South,176,0.0,0.0,86,0.00,,,0.00,Wunderground v.1.15,2013-01-23 21:58:00,
2013-01-23 15:03:00,25.4,21.8,30.18,South,176,0.0,0.0,86,0.00,,,0.00,Wunderground v.1.15,2013-01-23 22:03:00,
2013-01-23 15:08:00,25.5,21.9,30.18,South,176,0.0,0.0,86,0.00,,,0.00,Wunderground v.1.15,2013-01-23 22:08:00,
2013-01-23 15:14:00,25.9,22.0,30.18,South,176,0.0,0.0,85,0.00,,,0.00,Wunderground v.1.15,2013-01-23 22:14:00,
2013-01-23 15:20:00,25.5,22.2,30.17,South,176,0.0,0.0,87,0.00,,,0.00,Wunderground v.1.15,2013-01-23 22:20:00,
2013-01-23 15:25:00,25.3,21.7,30.17,South,176,0.0,0.0,86,0.00,,,0.00,Wunderground v.1.15,2013-01-23 22:25:00,
2013-01-23 15:30:00,25.2,21.6,30.17,South,176,0.0,0.0,86,0.00,,,0.00,Wunderground v.1.15,2013-01-23 22:30:00,
2013-01-23 15:36:00,25.3,22.0,30.17,South,176,0.0,0.0,87,0.00,,,0.00,Wunderground v.1.15,2013-01-23 22:36:00,
2013-01-23 15:41:00,25.3,22.0,30.17,South,176,0.0,0.0,87,0.00,,,0.00,Wunderground v.1.15,2013-01-23 22:41:00,
2013-01-23 15:47:00,25.3,21.7,30.16,South,176,0.0,0.0,86,0.00,,,0.00,Wunderground v.1.15,2013-01-23 22:47:00,
2013-01-23 15:52:00,25.3,21.7,30.16,South,176,0.0,0.0,86,0.00,,,0.00,Wunderground v.1.15,2013-01-23 22:52:00,
2013-01-23 15:57:00,25.2,21.9,30.17,South,176,0.0,0.0,87,0.00,,,0.00,Wunderground v.1.15,2013-01-23 22:57:00,
2013-01-23 16:03:00,25.1,21.8,30.16,South,176,0.0,0.0,87,0.00,,,0.00,Wunderground v.1.15,2013-01-23 23:03:00,
2013-01-23 16:08:00,25.0,21.7,30.16,South,176,0.0,0.0,87,0.00,,,0.00,Wunderground v.1.15,2013-01-23 23:08:00,
2013-01-23 16:13:00,24.9,21.3,30.15,South,176,0.0,0.0,86,0.00,,,0.00,Wunderground v.1.15,2013-01-23 23:13:00,
2013-01-23 16:19:00,25.0,21.7,30.15,South,176,0.0,0.0,87,0.00,,,0.00,Wunderground v.1.15,2013-01-23 23:19:00,
2013-01-23 16:24:00,25.0,21.7,30.15,South,176,0.0,0.0,87,0.00,,,0.00,Wunderground v.1.15,2013-01-23 23:24:00,
2013-01-23 16:29:00,25.0,21.7,30.15,South,176,0.0,0.0,87,0.00,,,0.00,Wunderground v.1.15,2013-01-23 23:29:00,
2013-01-23 16:35:00,24.9,21.6,30.15,South,176,0.0,0.0,87,0.00,,,0.00,Wunderground v.1.15,2013-01-23 23:35:00,
2013-01-23 16:40:00,25.0,21.4,30.14,South,176,0.0,0.0,86,0.00,,,0.00,Wunderground v.1.15,2013-01-23 23:40:00,
2013-01-23 16:45:00,25.1,21.5,30.15,South,176,0.0,1.0,86,0.00,,,0.00,Wunderground v.1.15,2013-01-23 23:45:00,
2013-01-23 16:51:00,25.1,21.2,30.15,South,176,0.0,0.0,85,0.00,,,0.00,Wunderground v.1.15,2013-01-23 23:51:00,
2013-01-23 16:56:00,25.1,21.5,30.14,South,176,0.0,0.0,86,0.00,,,0.00,Wunderground v.1.15,2013-01-23 23:56:00,
2013-01-23 17:01:00,25.1,21.2,30.14,South,176,0.0,0.0,85,0.00,,,0.00,Wunderground v.1.15,2013-01-24 00:01:00,
2013-01-23 17:07:00,25.2,21.6,30.14,South,176,0.0,0.0,86,0.00,,,0.00,Wunderground v.1.15,2013-01-24 00:07:00,
2013-01-23 17:12:00,25.2,21.9,30.14,South,176,0.0,0.0,87,0.00,,,0.00,Wunderground v.1.15,2013-01-24 00:12:00,
2013-01-23 17:17:00,25.2,21.9,30.14,South,176,0.0,0.0,87,0.00,,,0.00,Wunderground v.1.15,2013-01-24 00:17:00,
2013-01-23 17:23:00,25.2,21.9,30.13,South,176,0.0,0.0,87,0.00,,,0.00,Wunderground v.1.15,2013-01-24 00:23:00,
2013-01-23 17:28:00,25.1,21.8,30.14,South,176,0.0,0.0,87,0.00,,,0.00,Wunderground v.1.15,2013-01-24 00:28:00,
2013-01-23 17:33:00,25.1,21.8,30.14,South,176,0.0,0.0,87,0.00,,,0.00,Wunderground v.1.15,2013-01-24 00:33:00,
2013-01-23 17:39:00,25.0,21.4,30.13,South,176,0.0,0.0,86,0.00,,,0.00,Wunderground v.1.15,2013-01-24 00:39:00,
2013-01-23 17:44:00,25.0,21.4,30.13,South,176,0.0,0.0,86,0.00,,,0.00,Wunderground v.1.15,2013-01-24 00:44:00,
2013-01-23 17:49:00,24.9,21.3,30.13,South,176,0.0,0.0,86,0.00,,,0.00,Wunderground v.1.15,2013-01-24 00:49:00,
2013-01-23 17:55:00,24.9,21.3,30.13,South,176,0.0,0.0,86,0.00,,,0.00,Wunderground v.1.15,2013-01-24 00:55:00,
2013-01-23 18:00:00,24.9,21.6,30.13,South,176,0.0,0.0,87,0.00,,,0.00,Wunderground v.1.15,2013-01-24 01:00:00,
2013-01-23 18:05:00,24.8,21.5,30.13,South,176,0.0,0.0,87,0.00,,,0.00,Wunderground v.1.15,2013-01-24 01:05:00,
2013-01-23 18:11:00,24.8,21.5,30.13,South,176,0.0,0.0,87,0.00,,,0.00,Wunderground v.1.15,2013-01-24 01:11:00,
2013-01-23 18:16:00,24.7,21.4,30.13,South,176,0.0,0.0,87,0.00,,,0.00,Wunderground v.1.15,2013-01-24 01:16:00,
2013-01-23 18:22:00,24.7,21.4,30.12,South,176,0.0,0.0,87,0.00,,,0.00,Wunderground v.1.15,2013-01-24 01:22:00,
2013-01-23 18:27:00,24.7,21.1,30.12,South,176,0.0,0.0,86,0.00,,,0.00,Wunderground v.1.15,2013-01-24 01:27:00,
2013-01-23 18:32:00,24.7,21.1,30.12,South,176,0.0,0.0,86,0.00,,,0.00,Wunderground v.1.15,2013-01-24 01:32:00,
2013-01-23 18:37:00,24.6,21.0,30.13,South,176,0.0,0.0,86,0.00,,,0.00,Wunderground v.1.15,2013-01-24 01:37:00,
2013-01-23 18:43:00,24.6,21.0,30.13,South,176,0.0,0.0,86,0.00,,,0.00,Wunderground v.1.15,2013-01-24 01:43:00,
2013-01-23 18:48:00,24.6,21.0,30.13,South,176,0.0,0.0,86,0.00,,,0.00,Wunderground v.1.15,2013-01-24 01:48:00,
2013-01-23 18:54:00,24.7,21.1,30.13,South,176,0.0,0.0,86,0.00,,,0.00,Wunderground v.1.15,2013-01-24 01:54:00,
2013-01-23 18:59:00,24.8,21.2,30.14,South,176,0.0,0.0,86,0.00,,,0.00,Wunderground v.1.15,2013-01-24 01:59:00,
2013-01-23 19:04:00,24.8,21.2,30.14,South,176,0.0,0.0,86,0.00,,,0.00,Wunderground v.1.15,2013-01-24 02:04:00,
2013-01-23 19:10:00,24.9,21.3,30.14,South,176,0.0,0.0,86,0.00,,,0.00,Wunderground v.1.15,2013-01-24 02:10:00,
2013-01-23 19:16:00,24.9,21.6,30.13,South,176,0.0,0.0,87,0.00,,,0.00,Wunderground v.1.15,2013-01-24 02:16:00,
2013-01-23 19:21:00,24.9,21.6,30.14,South,176,0.0,0.0,87,0.00,,,0.00,Wunderground v.1.15,2013-01-24 02:21:00,
2013-01-23 19:27:00,24.9,21.6,30.14,South,176,0.0,2.0,87,0.00,,,0.00,Wunderground v.1.15,2013-01-24 02:27:00,
2013-01-23 19:32:00,24.9,21.6,30.14,NW,314,1.0,1.0,87,0.00,,,0.00,Wunderground v.1.15,2013-01-24 02:32:00,
2013-01-23 19:38:00,24.9,21.6,30.15,NW,314,0.0,1.0,87,0.00,,,0.00,Wunderground v.1.15,2013-01-24 02:38:00,
2013-01-23 19:43:00,24.9,21.6,30.15,NW,314,0.0,0.0,87,0.00,,,0.00,Wunderground v.1.15,2013-01-24 02:43:00,
2013-01-23 19:48:00,24.9,21.6,30.14,NW,314,0.0,0.0,87,0.00,,,0.00,Wunderground v.1.15,2013-01-24 02:48:00,
2013-01-23 19:53:00,24.9,21.6,30.15,NW,314,0.0,0.0,87,0.00,,,0.00,Wunderground v.1.15,2013-01-24 02:53:00,
2013-01-23 19:59:00,24.9,21.6,30.15,NW,314,0.0,0.0,87,0.00,,,0.00,Wunderground v.1.15,2013-01-24 02:59:00,
2013-01-23 20:04:00,24.9,21.6,30.15,NW,314,0.0,0.0,87,0.00,,,0.00,Wunderground v.1.15,2013-01-24 03:04:00,
2013-01-23 20:09:00,25.0,21.7,30.15,NW,314,0.0,0.0,87,0.00,,,0.00,Wunderground v.1.15,2013-01-24 03:09:00,
2013-01-23 20:14:00,25.0,21.7,30.15,NW,310,0.0,0.0,87,0.00,,,0.00,Wunderground v.1.15,2013-01-24 03:14:00,
2013-01-23 20:20:00,25.0,21.7,30.15,NW,310,0.0,0.0,87,0.00,,,0.00,Wunderground v.1.15,2013-01-24 03:20:00,
2013-01-23 20:25:00,25.0,21.7,30.15,NW,310,0.0,0.0,87,0.00,,,0.00,Wunderground v.1.15,2013-01-24 03:25:00,
2013-01-23 20:30:00,25.1,21.8,30.15,NW,310,0.0,0.0,87,0.00,,,0.00,Wunderground v.1.15,2013-01-24 03:30:00,
2013-01-23 20:36:00,25.1,21.8,30.15,NW,311,0.0,0.0,87,0.00,,,0.00,Wunderground v.1.15,2013-01-24 03:36:00,
2013-01-23 20:41:00,25.1,21.8,30.15,NW,310,0.0,0.0,87,0.00,,,0.00,Wunderground v.1.15,2013-01-24 03:41:00,
2013-01-23 20:46:00,25.1,21.8,30.14,NW,310,0.0,0.0,87,0.00,,,0.00,Wunderground v.1.15,2013-01-24 03:46:00,
2013-01-23 20:52:00,25.2,21.9,30.14,NW,310,0.0,0.0,87,0.00,,,0.00,Wunderground v.1.15,2013-01-24 03:52:00,
2013-01-23 20:57:00,25.2,21.9,30.14,NW,310,0.0,0.0,87,0.00,,,0.00,Wunderground v.1.15,2013-01-24 03:57:00,
2013-01-23 21:02:00,25.2,22.1,30.14,NW,310,0.0,0.0,88,0.00,,,0.00,Wunderground v.1.15,2013-01-24 04:02:00,
2013-01-23 21:08:00,25.3,22.2,30.14,NW,311,0.0,0.0,88,0.00,,,0.00,Wunderground v.1.15,2013-01-24 04:08:00,
2013-01-23 21:13:00,25.3,22.2,30.14,NW,310,0.0,0.0,88,0.00,,,0.00,Wunderground v.1.15,2013-01-24 04:13:00,
2013-01-23 21:19:00,25.3,22.2,30.15,NW,310,0.0,0.0,88,0.00,,,0.00,Wunderground v.1.15,2013-01-24 04:19:00,
2013-01-23 21:24:00,25.3,22.2,30.14,NW,310,0.0,0.0,88,0.00,,,0.00,Wunderground v.1.15,2013-01-24 04:24:00,
2013-01-23 21:29:00,25.4,22.6,30.14,NW,310,0.0,0.0,89,0.00,,,0.00,Wunderground v.1.15,2013-01-24 04:29:00,
2013-01-23 21:35:00,25.4,22.6,30.14,NW,310,0.0,0.0,89,0.00,,,0.00,Wunderground v.1.15,2013-01-24 04:35:00,
2013-01-23 21:40:00,25.4,22.6,30.14,NW,310,0.0,0.0,89,0.00,,,0.00,Wunderground v.1.15,2013-01-24 04:40:00,
2013-01-23 21:45:00,25.3,22.5,30.14,NW,310,0.0,0.0,89,0.00,,,0.01,Wunderground v.1.15,2013-01-24 04:45:00,
2013-01-23 21:51:00,25.4,22.9,30.14,NW,310,0.0,0.0,90,0.00,,,0.01,Wunderground v.1.15,2013-01-24 04:51:00,
2013-01-23 21:56:00,25.3,22.8,30.14,NW,310,0.0,0.0,90,0.05,,,0.02,Wunderground v.1.15,2013-01-24 04:56:00,
2013-01-23 22:00:00,25.3,23.0,30.14,NW,310,0.0,0.0,91,0.05,,,0.02,Wunderground v.1.15,2013-01-24 05:00:00,
2013-01-23 22:04:00,25.3,23.0,30.13,NW,310,0.0,0.0,91,0.05,,,0.02,Wunderground v.1.15,2013-01-24 05:04:00,
2013-01-23 22:06:00,25.3,23.0,30.13,NW,310,0.0,0.0,91,0.06,,,0.03,Wunderground v.1.15,2013-01-24 05:06:00,
2013-01-23 22:08:00,25.3,23.0,30.13,NW,311,0.0,0.0,91,0.06,,,0.03,Wunderground v.1.15,2013-01-24 05:08:00,
2013-01-23 22:13:00,25.3,23.0,30.13,NW,310,0.0,0.0,91,0.06,,,0.03,Wunderground v.1.15,2013-01-24 05:13:00,
2013-01-23 22:18:00,25.3,23.3,30.12,NW,310,0.0,0.0,92,0.05,,,0.04,Wunderground v.1.15,2013-01-24 05:18:00,
2013-01-23 22:23:00,25.3,23.3,30.13,NW,310,0.0,0.0,92,0.05,,,0.04,Wunderground v.1.15,2013-01-24 05:23:00,
2013-01-23 22:29:00,25.3,23.3,30.12,NW,310,0.0,0.0,92,0.05,,,0.04,Wunderground v.1.15,2013-01-24 05:29:00,
2013-01-23 22:34:00,25.3,23.3,30.12,NW,310,0.0,0.0,92,0.04,,,0.04,Wunderground v.1.15,2013-01-24 05:34:00,
2013-01-23 22:39:00,25.3,23.3,30.11,NW,311,0.0,1.0,92,0.00,,,0.05,Wunderground v.1.15,2013-01-24 05:39:00,
2013-01-23 22:45:00,25.3,23.6,30.11,NW,310,0.0,0.0,93,0.00,,,0.05,Wunderground v.1.15,2013-01-24 05:45:00,
2013-01-23 22:50:00,25.4,23.7,30.10,NW,310,0.0,0.0,93,0.00,,,0.05,Wunderground v.1.15,2013-01-24 05:50:00,
2013-01-23 22:55:00,25.4,23.7,30.10,NW,310,0.0,0.0,93,0.00,,,0.05,Wunderground v.1.15,2013-01-24 05:55:00,
2013-01-23 23:01:00,25.4,23.7,30.10,NW,310,0.0,0.0,93,0.00,,,0.05,Wunderground v.1.15,2013-01-24 06:01:00,
2013-01-23 23:06:00,25.4,23.7,30.10,NW,310,0.0,0.0,93,0.00,,,0.05,Wunderground v.1.15,2013-01-24 06:06:00,
2013-01-23 23:12:00,25.3,23.6,30.10,NW,310,0.0,0.0,93,0.00,,,0.05,Wunderground v.1.15,2013-01-24 06:12:00,
2013-01-23 23:17:00,25.3,23.6,30.10,NW,310,0.0,0.0,93,0.00,,,0.05,Wunderground v.1.15,2013-01-24 06:17:00,
2013-01-23 23:23:00,25.3,23.6,30.10,NW,310,0.0,0.0,93,0.00,,,0.05,Wunderground v.1.15,2013-01-24 06:23:00,
2013-01-23 23:28:00,25.3,23.6,30.10,NW,310,0.0,0.0,93,0.00,,,0.05,Wunderground v.1.15,2013-01-24 06:28:00,
2013-01-23 23:33:00,25.3,23.6,30.10,NW,310,0.0,0.0,93,0.00,,,0.05,Wunderground v.1.15,2013-01-24 06:33:00,
2013-01-23 23:38:00,25.3,23.6,30.10,NW,311,0.0,0.0,93,0.00,,,0.05,Wunderground v.1.15,2013-01-24 06:38:00,
2013-01-23 23:44:00,25.3,23.6,30.10,NW,310,0.0,0.0,93,0.00,,,0.05,Wunderground v.1.15,2013-01-24 06:44:00,
2013-01-23 23:50:00,25.3,23.6,30.10,NW,311,0.0,0.0,93,0.00,,,0.05,Wunderground v.1.15,2013-01-24 06:50:00,
2013-01-23 23:55:00,25.3,23.6,30.10,NW,310,0.0,0.0,93,0.00,,,0.05,Wunderground v.1.15,2013-01-24 06:55:00,